When you browse on this site, cookies collect data to enhance your experience and personalize the content and advertising you see.
Visit our Privacy Policy to learn more. By continuing to use the site, you agree to this use of cookies and data.
  • In Romania
  • List of Countries
  • For 7 days
  • Water Temperature
  • Satellite Maps
  • Weather Map
  • Weather Widgets
  • user-avatar
    Login

    Hourly Weather Sevostyanovo

    Today, 25 March, Monday

    Time Temperature Precipitation Wind Pressure Humidity
    00:00 -2°C° 0 mm 3 mps 739 mmHg 85%
    01:00 -2°C° 0 mm 3 mps 739 mmHg 84%
    02:00 -4°C° 0 mm 2 mps 738 mmHg 85%
    03:00 -5°C° 0 mm 3 mps 738 mmHg 86%
    04:00 -5°C° 0 mm 3 mps 738 mmHg 87%
    05:00 -5°C° 0 mm 3 mps 738 mmHg 87%
    06:00 -4°C° 0 mm 3 mps 738 mmHg 85%
    07:00 -4°C° 0 mm 3 mps 738 mmHg 83%
    08:00 -1°C° 0 mm 3 mps 737 mmHg 80%
    09:00 0°C° 0 mm 3 mps 737 mmHg 78%
    10:00 +1°C° 0 mm 3 mps 737 mmHg 76%
    11:00 +1°C° 0 mm 4 mps 737 mmHg 74%
    12:00 +3°C° 0 mm 4 mps 737 mmHg 69%
    13:00 +4°C° 0 mm 4 mps 737 mmHg 64%
    14:00 +5°C° 0 mm 4 mps 737 mmHg 59%
    15:00 +4°C° 0 mm 3 mps 737 mmHg 62%
    16:00 +3°C° 0 mm 3 mps 737 mmHg 66%
    17:00 +3°C° 0 mm 2 mps 736 mmHg 69%
    18:00 +2°C° 0 mm 2 mps 736 mmHg 73%
    19:00 +1°C° 0 mm 2 mps 736 mmHg 76%
    20:00 -1°C° 0 mm 2 mps 736 mmHg 80%
    21:00 -1°C° 0 mm 2 mps 736 mmHg 81%
    22:00 -1°C° 0 mm 2 mps 736 mmHg 81%
    23:00 -1°C° 0 mm 2 mps 736 mmHg 82%

    Tomorrow, 26 March, Tuesday

    Time Temperature Precipitation Wind Pressure Humidity
    00:00 -2°C° 0 mm 2 mps 736 mmHg 83%
    01:00 -2°C° 0 mm 2 mps 736 mmHg 84%
    02:00 -2°C° 0 mm 2 mps 735 mmHg 85%
    03:00 -2°C° 0 mm 2 mps 735 mmHg 86%
    04:00 -2°C° 0 mm 2 mps 735 mmHg 86%
    05:00 -2°C° 0 mm 2 mps 734 mmHg 86%
    06:00 -2°C° 0.1 mm 2 mps 734 mmHg 85%
    07:00 -1°C° 0.1 mm 3 mps 734 mmHg 84%
    08:00 0°C° 0.1 mm 3 mps 734 mmHg 83%
    09:00 0°C° 0.1 mm 3 mps 734 mmHg 81%
    10:00 +1°C° 0.1 mm 3 mps 734 mmHg 78%
    11:00 +2°C° 0.1 mm 3 mps 735 mmHg 76%
    12:00 +1°C° 0.2 mm 4 mps 735 mmHg 72%
    13:00 +1°C° 0.2 mm 4 mps 735 mmHg 69%
    14:00 +1°C° 0.2 mm 4 mps 735 mmHg 65%
    15:00 0°C° 0 mm 4 mps 735 mmHg 66%
    16:00 +1°C° 0 mm 3 mps 735 mmHg 67%
    17:00 0°C° 0 mm 3 mps 735 mmHg 68%
    18:00 -1°C° 0 mm 2 mps 736 mmHg 73%
    19:00 -2°C° 0 mm 2 mps 737 mmHg 78%
    20:00 -3°C° 0 mm 2 mps 737 mmHg 83%
    21:00 -3°C° 0 mm 2 mps 737 mmHg 83%
    22:00 -4°C° 0 mm 2 mps 738 mmHg 83%
    23:00 -4°C° 0 mm 2 mps 738 mmHg 84%

    Day after tomorrow, 27 March, Wednesday

    Time Temperature Precipitation Wind Pressure Humidity
    00:00 -4°C° 0 mm 2 mps 738 mmHg 83%
    01:00 -4°C° 0 mm 2 mps 739 mmHg 83%
    02:00 -4°C° 0 mm 2 mps 739 mmHg 83%
    03:00 -4°C° 0 mm 2 mps 739 mmHg 83%
    04:00 -4°C° 0 mm 2 mps 739 mmHg 83%
    05:00 -5°C° 0 mm 2 mps 739 mmHg 82%
    06:00 -4°C° 0 mm 2 mps 740 mmHg 80%
    07:00 -4°C° 0 mm 3 mps 740 mmHg 77%
    08:00 -4°C° 0 mm 3 mps 740 mmHg 74%
    09:00 -2°C° 0.1 mm 3 mps 741 mmHg 72%
    10:00 -2°C° 0.1 mm 4 mps 741 mmHg 69%
    11:00 -1°C° 0.1 mm 4 mps 742 mmHg 67%
    12:00 -1°C° 0.1 mm 4 mps 742 mmHg 67%
    13:00 -1°C° 0.1 mm 5 mps 742 mmHg 68%
    14:00 -1°C° 0.1 mm 5 mps 743 mmHg 69%
    15:00 -2°C° 0.3 mm 5 mps 743 mmHg 72%
    16:00 -2°C° 0.3 mm 5 mps 743 mmHg 75%
    17:00 -2°C° 0.3 mm 5 mps 744 mmHg 78%
    18:00 -4°C° 0.2 mm 5 mps 744 mmHg 79%
    19:00 -4°C° 0.2 mm 5 mps 745 mmHg 80%
    20:00 -3°C° 0.2 mm 4 mps 746 mmHg 81%
    21:00 -3°C° 0.1 mm 4 mps 746 mmHg 82%
    22:00 -3°C° 0.1 mm 4 mps 746 mmHg 84%
    23:00 -4°C° 0.1 mm 4 mps 747 mmHg 85%

    28 March, Thursday

    Time Temperature Precipitation Wind Pressure Humidity
    00:00 -4°C° 0.1 mm 4 mps 747 mmHg 84%
    01:00 -5°C° 0.1 mm 5 mps 747 mmHg 83%
    02:00 -5°C° 0.1 mm 5 mps 747 mmHg 83%
    03:00 -5°C° 0 mm 5 mps 748 mmHg 83%
    04:00 -5°C° 0 mm 5 mps 748 mmHg 83%
    05:00 -5°C° 0 mm 5 mps 749 mmHg 84%
    06:00 -5°C° 0 mm 5 mps 749 mmHg 81%
    07:00 -4°C° 0 mm 4 mps 750 mmHg 79%
    08:00 -3°C° 0 mm 4 mps 750 mmHg 76%
    09:00 -3°C° 0 mm 4 mps 750 mmHg 74%
    10:00 -2°C° 0 mm 4 mps 751 mmHg 72%
    11:00 -2°C° 0 mm 4 mps 751 mmHg 69%
    12:00 -1°C° 0 mm 4 mps 751 mmHg 67%
    13:00 -1°C° 0 mm 4 mps 751 mmHg 65%
    14:00 0°C° 0 mm 4 mps 751 mmHg 63%
    15:00 +1°C° 0 mm 3 mps 751 mmHg 64%
    16:00 +1°C° 0 mm 3 mps 750 mmHg 64%
    17:00 +1°C° 0 mm 2 mps 750 mmHg 65%
    18:00 -1°C° 0 mm 2 mps 750 mmHg 67%
    19:00 -1°C° 0 mm 2 mps 750 mmHg 69%
    20:00 -2°C° 0 mm 2 mps 749 mmHg 72%
    21:00 -2°C° 0 mm 3 mps 749 mmHg 72%
    22:00 -2°C° 0 mm 3 mps 748 mmHg 72%
    23:00 -2°C° 0 mm 4 mps 747 mmHg 73%

    29 March, Friday

    Time Temperature Precipitation Wind Pressure Humidity
    00:00 -2°C° 0.2 mm 4 mps 746 mmHg 75%
    01:00 -1°C° 0.2 mm 5 mps 745 mmHg 78%
    02:00 -1°C° 0.2 mm 5 mps 745 mmHg 81%
    03:00 -1°C° 0.5 mm 6 mps 744 mmHg 83%
    04:00 -1°C° 0.5 mm 6 mps 743 mmHg 84%
    05:00 -1°C° 0.5 mm 6 mps 742 mmHg 85%
    06:00 +1°C° 0.1 mm 6 mps 742 mmHg 82%
    07:00 +1°C° 0.1 mm 6 mps 743 mmHg 79%
    08:00 +1°C° 0.1 mm 6 mps 743 mmHg 76%
    09:00 +2°C° 0 mm 6 mps 744 mmHg 70%
    10:00 +2°C° 0 mm 7 mps 744 mmHg 64%
    11:00 +3°C° 0 mm 7 mps 745 mmHg 59%
    12:00 +3°C° 0 mm 7 mps 745 mmHg 58%
    13:00 +3°C° 0 mm 6 mps 745 mmHg 58%
    14:00 +3°C° 0 mm 6 mps 746 mmHg 58%
    15:00 +3°C° 0 mm 5 mps 746 mmHg 62%
    16:00 +3°C° 0 mm 4 mps 746 mmHg 66%
    17:00 +2°C° 0 mm 3 mps 746 mmHg 71%
    18:00 +1°C° 0 mm 3 mps 746 mmHg 74%
    19:00 +1°C° 0 mm 2 mps 746 mmHg 78%
    20:00 -1°C° 0 mm 2 mps 747 mmHg 82%
    21:00 +1°C° 0 mm 2 mps 746 mmHg 80%
    22:00 0°C° 0 mm 3 mps 746 mmHg 78%
    23:00 +1°C° 0 mm 3 mps 746 mmHg 77%

    30 March, Saturday

    Time Temperature Precipitation Wind Pressure Humidity
    00:00 +1°C° 0 mm 3 mps 745 mmHg 77%
    01:00 +1°C° 0 mm 3 mps 745 mmHg 77%
    02:00 0°C° 0 mm 4 mps 744 mmHg 77%
    03:00 0°C° 0 mm 4 mps 744 mmHg 81%
    04:00 0°C° 0 mm 4 mps 743 mmHg 84%
    05:00 0°C° 0 mm 4 mps 743 mmHg 87%
    06:00 +1°C° 0 mm 5 mps 743 mmHg 88%
    07:00 +1°C° 0 mm 5 mps 742 mmHg 90%
    08:00 +2°C° 0 mm 5 mps 742 mmHg 91%
    09:00 +2°C° 0 mm 5 mps 742 mmHg 91%
    10:00 +3°C° 0 mm 4 mps 742 mmHg 90%
    11:00 +4°C° 0 mm 4 mps 742 mmHg 90%
    12:00 +4°C° 0 mm 4 mps 742 mmHg 88%
    13:00 +5°C° 0 mm 4 mps 742 mmHg 85%
    14:00 +5°C° 0 mm 4 mps 742 mmHg 83%
    15:00 +5°C° 0 mm 4 mps 742 mmHg 85%
    16:00 +5°C° 0 mm 3 mps 742 mmHg 87%
    17:00 +4°C° 0 mm 3 mps 742 mmHg 88%
    18:00 +4°C° 0 mm 3 mps 742 mmHg 89%
    19:00 +3°C° 0 mm 3 mps 742 mmHg 91%
    20:00 +3°C° 0 mm 3 mps 743 mmHg 92%
    21:00 +2°C° 0 mm 3 mps 742 mmHg 92%
    22:00 +2°C° 0 mm 3 mps 742 mmHg 92%
    23:00 +2°C° 0 mm 3 mps 742 mmHg 92%
    Show more